Location: *
(0.1100°N, 5.5000°E)
Time: 09:59:18
(UTC+00:00)

ARGOS - Pass Details

Date: 07 December 2022
Orbit: 820 x 834 km, 98.4° (Epoch: 07 February)

Event Time Altitude Azimuth Distance (km) Brightness Sun altitude
Rises 17:48:32 0° 176° (S) 3,378 6.6 -4.4°
Reaches altitude 10° 17:50:55 10° 179° (S) 2,443 5.9 -5.0°
Maximum altitude 17:56:14 58° 258° (WSW) 967 4.0 -6.2°
Drops below altitude 10° 18:01:32 10° 336° (NNW) 2,434 5.6 -7.4°
Sets 18:03:55 0° 340° (NNW) 3,365 6.3 -8.0°
